GLD1204 SBRJ-SBSP

Flight info

Callsign GLD1204
Flight time 0h 49m
Altitude 28000
Route NAXOP UZ45 IBDAL
Aircraft A20N/M-SDE2E3FGHIRWXY/LB1

Departure

Time 2026-05-04 22:49
Airport Santos Dumont Airport (SBRJ)

Arrival

Time 2026-05-04 23:38
Airport Congonhas–Deputado Freitas Nobre Airport (SBSP)
Time Latitude Longitude Altitude Speed Heading
2026-05-04 22:48 -22.87762 -43.15128 1730 ft 191 kts 68°
2026-05-04 22:49 -22.87572 -43.13676 2251 ft 201 kts 98°
2026-05-04 22:49 -22.87748 -43.12087 2673 ft 220 kts 93°
2026-05-04 22:49 -22.87801 -43.10418 3263 ft 224 kts 96°
2026-05-04 22:49 -22.88013 -43.08761 3393 ft 222 kts 100°
2026-05-04 22:50 -22.88218 -43.07092 3769 ft 222 kts 99°
2026-05-04 22:50 -22.88601 -43.05522 4730 ft 212 kts 122°
2026-05-04 22:50 -22.89629 -43.04408 5719 ft 211 kts 154°
2026-05-04 22:50 -22.91017 -43.03980 6745 ft 213 kts 171°
2026-05-04 22:51 -22.92500 -43.03728 7672 ft 219 kts 176°
2026-05-04 22:51 -22.93855 -43.03873 8470 ft 223 kts 200°
2026-05-04 22:51 -22.95188 -43.04733 9389 ft 226 kts 221°
2026-05-04 22:51 -22.96410 -43.05852 10294 ft 232 kts 222°
2026-05-04 22:52 -22.97653 -43.06985 11193 ft 234 kts 222°
2026-05-04 22:52 -22.98912 -43.08122 12090 ft 237 kts 221°
2026-05-04 22:52 -23.00192 -43.09272 12977 ft 240 kts 221°
2026-05-04 22:52 -23.01489 -43.10433 13854 ft 243 kts 221°
2026-05-04 22:53 -23.02804 -43.11607 14644 ft 245 kts 221°
2026-05-04 22:53 -23.04123 -43.12782 15454 ft 246 kts 222°
2026-05-04 22:53 -23.05448 -43.13962 16268 ft 246 kts 223°
2026-05-04 22:53 -23.06775 -43.15144 17057 ft 247 kts 223°
2026-05-04 22:54 -23.08115 -43.16323 17850 ft 249 kts 223°
2026-05-04 22:54 -23.09474 -43.17498 18596 ft 250 kts 223°
2026-05-04 22:54 -23.10835 -43.18674 19272 ft 250 kts 224°
2026-05-04 22:54 -23.12181 -43.19840 19938 ft 251 kts 224°
2026-05-04 22:55 -23.13549 -43.21029 20601 ft 252 kts 224°
2026-05-04 22:55 -23.14920 -43.22222 21268 ft 253 kts 224°
2026-05-04 22:55 -23.16298 -43.23423 21907 ft 255 kts 224°
2026-05-04 22:55 -23.17683 -43.24631 22564 ft 256 kts 224°
2026-05-04 22:56 -23.19076 -43.25846 23209 ft 258 kts 224°
2026-05-04 22:56 -23.20483 -43.27074 23818 ft 260 kts 225°
2026-05-04 22:56 -23.21903 -43.28312 24323 ft 263 kts 225°
2026-05-04 22:56 -23.23252 -43.29490 24783 ft 266 kts 225°
2026-05-04 22:57 -23.24704 -43.30756 25285 ft 268 kts 226°
2026-05-04 22:57 -23.26166 -43.32031 25777 ft 271 kts 226°
2026-05-04 22:57 -23.27641 -43.33319 26250 ft 274 kts 226°
2026-05-04 22:57 -23.29132 -43.34621 26739 ft 276 kts 226°
2026-05-04 22:58 -23.30634 -43.35932 27202 ft 278 kts 227°
2026-05-04 22:58 -23.32086 -43.37316 27669 ft 276 kts 234°
2026-05-04 22:58 -23.33262 -43.38954 27966 ft 278 kts 244°
2026-05-04 22:58 -23.34110 -43.40839 28086 ft 286 kts 254°
2026-05-04 22:59 -23.34644 -43.42966 28185 ft 298 kts 259°
2026-05-04 22:59 -23.35158 -43.45223 28192 ft 316 kts 258°
2026-05-04 22:59 -23.35685 -43.47485 28187 ft 332 kts 258°
2026-05-04 22:59 -23.36269 -43.49974 28194 ft 348 kts 258°
2026-05-04 23:00 -23.36885 -43.52590 28193 ft 364 kts 258°
2026-05-04 23:00 -23.37524 -43.55313 28191 ft 378 kts 258°
2026-05-04 23:00 -23.38851 -43.60965 28185 ft 386 kts 258°
2026-05-04 23:01 -23.40169 -43.66601 28193 ft 385 kts 258°
2026-05-04 23:01 -23.41487 -43.72259 28183 ft 385 kts 258°
2026-05-04 23:02 -23.42794 -43.77881 28183 ft 385 kts 258°
2026-05-04 23:02 -23.44106 -43.83534 28187 ft 385 kts 258°
2026-05-04 23:03 -23.45420 -43.89203 28185 ft 386 kts 258°
2026-05-04 23:03 -23.46732 -43.94875 28186 ft 385 kts 258°
2026-05-04 23:04 -23.48041 -44.00543 28185 ft 386 kts 258°
2026-05-04 23:04 -23.49341 -44.06184 28183 ft 386 kts 258°
2026-05-04 23:05 -23.50651 -44.11875 28181 ft 387 kts 258°
2026-05-04 23:05 -23.51957 -44.17560 28182 ft 387 kts 258°
2026-05-04 23:06 -23.53262 -44.23247 28184 ft 387 kts 258°
2026-05-04 23:06 -23.54566 -44.28936 28183 ft 387 kts 258°
2026-05-04 23:07 -23.55863 -44.34607 28183 ft 387 kts 258°
2026-05-04 23:07 -23.57165 -44.40306 28184 ft 387 kts 258°
2026-05-04 23:08 -23.58466 -44.46013 28183 ft 388 kts 258°
2026-05-04 23:08 -23.59766 -44.51726 28181 ft 388 kts 258°
2026-05-04 23:09 -23.61064 -44.57441 28181 ft 388 kts 258°
2026-05-04 23:09 -23.62280 -44.62804 28181 ft 388 kts 258°
2026-05-04 23:10 -23.63575 -44.68529 28176 ft 389 kts 258°
2026-05-04 23:10 -23.64868 -44.74251 28177 ft 388 kts 258°
2026-05-04 23:11 -23.66161 -44.79985 28176 ft 389 kts 258°
2026-05-04 23:11 -23.67451 -44.85714 28176 ft 389 kts 258°
2026-05-04 23:12 -23.68731 -44.91410 28173 ft 389 kts 258°
2026-05-04 23:12 -23.70015 -44.97137 28177 ft 389 kts 258°
2026-05-04 23:13 -23.71290 -45.02832 28179 ft 389 kts 258°
2026-05-04 23:13 -23.72580 -45.08603 28177 ft 389 kts 258°
2026-05-04 23:14 -23.73861 -45.14345 28176 ft 389 kts 258°
2026-05-04 23:14 -23.74499 -45.17206 27956 ft 386 kts 258°
2026-05-04 23:14 -23.75130 -45.20042 27614 ft 384 kts 258°
2026-05-04 23:15 -23.75761 -45.22883 27366 ft 386 kts 258°
2026-05-04 23:15 -23.76391 -45.25728 27117 ft 385 kts 258°
2026-05-04 23:15 -23.77018 -45.28568 26872 ft 383 kts 258°
2026-05-04 23:15 -23.77633 -45.31351 26634 ft 382 kts 258°
2026-05-04 23:16 -23.78253 -45.34170 26398 ft 382 kts 257°
2026-05-04 23:16 -23.78872 -45.36982 26154 ft 380 kts 257°
2026-05-04 23:16 -23.79462 -45.39792 25912 ft 378 kts 260°
2026-05-04 23:16 -23.79815 -45.42636 25709 ft 378 kts 265°
2026-05-04 23:17 -23.79959 -45.45502 25535 ft 377 kts 266°
2026-05-04 23:17 -23.80101 -45.48353 25214 ft 376 kts 266°
2026-05-04 23:17 -23.80249 -45.51207 24847 ft 376 kts 266°
2026-05-04 23:17 -23.80397 -45.54044 24483 ft 374 kts 266°
2026-05-04 23:18 -23.80544 -45.56873 24117 ft 372 kts 265°
2026-05-04 23:18 -23.80689 -45.59688 23749 ft 371 kts 265°
2026-05-04 23:18 -23.80833 -45.62495 23354 ft 370 kts 265°
2026-05-04 23:18 -23.80976 -45.65294 22989 ft 369 kts 265°
2026-05-04 23:19 -23.81119 -45.68091 22632 ft 368 kts 266°
2026-05-04 23:19 -23.81261 -45.70879 22272 ft 368 kts 266°
2026-05-04 23:19 -23.81401 -45.73660 21915 ft 366 kts 266°
2026-05-04 23:19 -23.81540 -45.76438 21556 ft 366 kts 266°
2026-05-04 23:20 -23.81677 -45.79178 21203 ft 365 kts 266°
2026-05-04 23:20 -23.81815 -45.81944 20845 ft 364 kts 266°
2026-05-04 23:20 -23.81952 -45.84700 20495 ft 363 kts 266°
2026-05-04 23:20 -23.82088 -45.87455 20135 ft 362 kts 266°
2026-05-04 23:21 -23.82224 -45.90192 19785 ft 362 kts 266°
2026-05-04 23:21 -23.82359 -45.92933 19433 ft 362 kts 266°
2026-05-04 23:21 -23.82494 -45.95676 19080 ft 361 kts 266°
2026-05-04 23:21 -23.82629 -45.98411 18731 ft 361 kts 266°
2026-05-04 23:22 -23.82762 -46.01149 18371 ft 360 kts 266°
2026-05-04 23:22 -23.82895 -46.03878 17997 ft 359 kts 266°
2026-05-04 23:22 -23.83025 -46.06560 17658 ft 358 kts 266°
2026-05-04 23:22 -23.83155 -46.09269 17311 ft 357 kts 266°
2026-05-04 23:23 -23.83284 -46.11976 16959 ft 356 kts 266°
2026-05-04 23:23 -23.83413 -46.14673 16616 ft 355 kts 266°
2026-05-04 23:23 -23.83543 -46.17356 16271 ft 354 kts 266°
2026-05-04 23:23 -23.83690 -46.20041 15919 ft 352 kts 266°
2026-05-04 23:24 -23.83840 -46.22704 15408 ft 350 kts 266°
2026-05-04 23:24 -23.83982 -46.25354 14814 ft 349 kts 266°
2026-05-04 23:24 -23.84125 -46.28000 14211 ft 348 kts 266°
2026-05-04 23:24 -23.84269 -46.30632 13613 ft 347 kts 266°
2026-05-04 23:25 -23.84410 -46.33217 13059 ft 343 kts 266°
2026-05-04 23:25 -23.84555 -46.35807 12450 ft 341 kts 266°
2026-05-04 23:25 -23.84702 -46.38377 11966 ft 336 kts 266°
2026-05-04 23:25 -23.84845 -46.40869 11814 ft 321 kts 266°
2026-05-04 23:26 -23.84974 -46.43092 11695 ft 308 kts 266°
2026-05-04 23:26 -23.85106 -46.45375 11583 ft 294 kts 266°
2026-05-04 23:26 -23.85233 -46.47575 11289 ft 288 kts 266°
2026-05-04 23:26 -23.85360 -46.49756 10888 ft 287 kts 266°
2026-05-04 23:27 -23.85490 -46.51923 10492 ft 285 kts 266°
2026-05-04 23:27 -23.85611 -46.53921 10123 ft 284 kts 266°
2026-05-04 23:27 -23.85742 -46.56064 9689 ft 282 kts 266°
2026-05-04 23:27 -23.85872 -46.58204 9249 ft 281 kts 266°
2026-05-04 23:28 -23.86001 -46.60334 8828 ft 280 kts 266°
2026-05-04 23:28 -23.86128 -46.62420 8405 ft 279 kts 266°
2026-05-04 23:28 -23.86167 -46.64528 7979 ft 278 kts 278°
2026-05-04 23:28 -23.85484 -46.66475 7553 ft 277 kts 304°
2026-05-04 23:29 -23.84078 -46.67891 7150 ft 277 kts 330°
2026-05-04 23:29 -23.82287 -46.68640 6851 ft 274 kts 341°
2026-05-04 23:29 -23.81287 -46.68974 6799 ft 276 kts 342°
2026-05-04 23:29 -23.79433 -46.69574 6792 ft 278 kts 342°
2026-05-04 23:30 -23.77635 -46.70159 6788 ft 277 kts 342°
2026-05-04 23:30 -23.75787 -46.70772 6797 ft 277 kts 342°
2026-05-04 23:30 -23.73945 -46.71391 6802 ft 277 kts 341°
2026-05-04 23:30 -23.72132 -46.72087 6799 ft 276 kts 335°
2026-05-04 23:31 -23.70456 -46.73109 6799 ft 275 kts 326°
2026-05-04 23:31 -23.68849 -46.74243 6802 ft 275 kts 326°
2026-05-04 23:31 -23.67238 -46.75369 6800 ft 275 kts 327°
2026-05-04 23:31 -23.65625 -46.76492 6802 ft 275 kts 327°
2026-05-04 23:32 -23.64035 -46.77594 6764 ft 265 kts 327°
2026-05-04 23:32 -23.62511 -46.78649 6651 ft 253 kts 327°
2026-05-04 23:32 -23.61051 -46.79661 6326 ft 251 kts 327°
2026-05-04 23:32 -23.59569 -46.80689 5917 ft 254 kts 327°
2026-05-04 23:33 -23.57988 -46.81536 5511 ft 255 kts 348°
2026-05-04 23:33 -23.56271 -46.81482 5312 ft 242 kts 19°
2026-05-04 23:33 -23.54917 -46.80546 5205 ft 225 kts 51°
2026-05-04 23:33 -23.54095 -46.79164 5079 ft 213 kts 62°
2026-05-04 23:34 -23.53392 -46.77768 4920 ft 206 kts 63°
2026-05-04 23:34 -23.52706 -46.76435 4796 ft 195 kts 62°
2026-05-04 23:34 -23.52042 -46.75186 4729 ft 190 kts 66°
2026-05-04 23:34 -23.51922 -46.73815 4653 ft 186 kts 108°
2026-05-04 23:35 -23.52650 -46.72650 4588 ft 188 kts 137°
2026-05-04 23:35 -23.53691 -46.71820 4477 ft 186 kts 147°
2026-05-04 23:35 -23.54749 -46.71120 4272 ft 171 kts 148°
2026-05-04 23:35 -23.55717 -46.70466 4082 ft 157 kts 146°
2026-05-04 23:36 -23.56602 -46.69854 3898 ft 143 kts 146°
2026-05-04 23:36 -23.57398 -46.69301 3724 ft 129 kts 146°
2026-05-04 23:36 -23.58135 -46.68789 3573 ft 127 kts 146°
2026-05-04 23:36 -23.58880 -46.68272 3406 ft 127 kts 146°
2026-05-04 23:37 -23.59627 -46.67752 3257 ft 128 kts 146°
2026-05-04 23:37 -23.60370 -46.67225 3127 ft 127 kts 147°
2026-05-04 23:37 -23.60864 -46.66887 3005 ft 126 kts 149°
2026-05-04 23:37 -23.61606 -46.66390 2757 ft 125 kts 148°
2026-05-04 23:38 -23.62552 -46.65732 2604 ft 102 kts 148°
2026-05-04 23:38 -23.62832 -46.65533 2607 ft 43 kts 147°
2026-05-04 23:38 -23.62913 -46.65514 2606 ft 9 kts 231°
2026-05-04 23:38 -23.62923 -46.65613 2602 ft 11 kts 252°
2026-05-04 23:39 -23.62958 -46.65662 2600 ft 14 kts 231°
2026-05-04 23:39 -23.63002 -46.65749 2600 ft 10 kts 282°
2026-05-04 23:39 -23.62944 -46.65806 2600 ft 5 kts 326°
2026-05-04 23:39 -23.62944 -46.65807 2600 ft 0 kts 326°